Regional Weather Roundup
Issued by NWS Grand Forks, ND

Home | Current Version | Previous Version | Graphics & Text | Print | Product List | Glossary On
Versions: 1 2 3 4 5 6 7 8 9 10 11 12 13 14 15 16 17 18 19 20 21 22 23 24 25 26 27 28 29 30 31 32 33 34 35 36 37 38 39 40 41 42 43 44 45 46 47 48 49 50
000
ASUS43 KFGF 042010
RWRFGF
PRAIRIE TO PINES  WEATHER ROUNDUP
NATIONAL WEATHER SERVICE EASTERN NORTH DAKOTA/GRAND FORKS ND
300 PM CDT FRI SEP 04 2015

 **SATELLITE DATA USED TO AUGMENT SKY COVER AT AUTOMATED STATIONS**
 *****  WEATHER ACROSS EASTERN NORTH DAKOTA  *****

CITY           SKY/WX    TMP DP  RH WIND       PRES   REMARKS
GRAND FORKS    CLOUDY    82  66  58 SW15G25   29.78R
GRAND FRKS AFB CLOUDY    81  71  71 W10       29.78R
GRAND FRKS NWS   N/A     81 N/A N/A SW18        N/A
DEVILS LAKE    CLOUDY    70  63  78 SE7       29.77R
FARGO          LGT RAIN  78  71  79 S9        29.80S
WAHPETON ARPT  CLOUDY    77  70  78 S7        29.84R
$$

 ***** WEATHER ACROSS CENTRAL AND WESTERN NORTH DAKOTA  *****

CITY           SKY/WX    TMP DP  RH WIND       PRES   REMARKS
BISMARCK       CLOUDY    82  70  66 VRB3      29.76F
MINOT          CLOUDY    74  64  71 NW13      29.80R
JAMESTOWN      CLOUDY    77  66  68 S6        29.79S
MINOT AFB      CLOUDY    73  65  76 NW13      29.81R
GARRISON         N/A     77  65  66 SW7       29.80F
WILLISTON      CLOUDY    71  55  56 N17       29.88F
DICKINSON      CLOUDY    70  63  78 N7        29.83S
HETTINGER      SUNNY     87  56  34 S7        29.82S
$$

 *****  OTHER AIRPORT OBSERVATIONS IN OUR AREA  *****

CITY           SKY/WX    TMP DP  RH WIND       PRES   REMARKS
WALHALLA       NOT AVBL
GRAFTON AIRPOR MOCLDY    73  73 100 SE7       29.79R
VALLEY CITY AR FAIR      79  72  78 S12G17    29.81S
CANDO          NOT AVBL
CAVALIER APRT  TSTM      64  63  94 NW23G31   29.83R VSB 1/4
GWINNER          N/A     81  81 100 E8        29.81F HX  91
ROLLA          FOG       63  63 100 NE7       29.84F VSB 1/2
 ***** THE ABOVE OBSERVATIONS ARE NON NWS ARE NOT QUALITY
       CONTROLLED AND MAY MIS-REPORT RAIN FOR SNOW...
$$

  *****  WEATHER ACROSS NORTHERN MINNESOTA  *****

CITY           SKY/WX    TMP DP  RH WIND       PRES   REMARKS
FLAG ISLAND    CLOUDY    79  70  73 SE6       29.83S
WARROAD        PTSUNNY   82  73  74 S13G20    29.83R
ROSEAU         CLOUDY    79  72  78 S10       29.84R
HALLOCK        CLOUDY    73  72  94 SE7       29.79R
THF RVR FALLS  CLOUDY    82  73  74 S15       29.82R
BAUDETTE       MOSUNNY   85  71  63 SE14G25   29.84R HX  90
WASKISH        PTSUNNY   82  72  69 SE7       29.87R
CROOKSTON      PTSUNNY   84  70  61 SW17      29.81R
STEPHEN NDAWN    N/A     77  73  88 S8          N/A
GREENBUSH NDAW   N/A     73  72  94 SE6         N/A
$$
  *****  WEATHER ACROSS CENTRAL AND WEST MINNESOTA  *****

CITY           SKY/WX    TMP DP  RH WIND       PRES   REMARKS
FOSSTON        CLOUDY    81  68  65 SE13G20   29.84S
BEMIDJI        PTSUNNY   80  70  70 SE12      29.87S
PARK RAPIDS    CLOUDY    84  70  62 SE14      29.86F
ELBOW LAKE     LGT RAIN  78  72  81 SE6       29.85S
WADENA         CLOUDY    82  72  69 SE13      29.85F
DETROIT LAKES  LGT RAIN  77  70  78 S7        29.86R
MOORHEAD       DRIZZLE   79  72  78 S7        29.82S
FERGUS FALLS   CLOUDY    79  72  78 SE6       29.83F
MORRIS MN      CLOUDY    82  72  69 SE3       29.85R
STAPLES        CLOUDY    84  72  65 SE10      29.86F
$$
  *****  WEATHER ELSEWHERE ACROSS MINNESOTA  *****

CITY           SKY/WX    TMP DP  RH WIND       PRES   REMARKS
DULUTH         MOSUNNY   76  65  68 E14       29.98F
INTRNTL FALLS  PTSUNNY   84  70  62 SE17G23   29.89F
ELY            SUNNY     82  57  42 SE13      29.97F
CLOQUET        SUNNY     73  63  68 E13       29.97F
WHEATON        CLOUDY    81  72  74 E8        29.85F
BRAINERD       PTSUNNY   84  70  62 SE10      29.89F
HIBBING        SUNNY     82  69  64 SE12G20   29.94F
ALEXANDRIA     CLOUDY    84  71  65 SE9       29.88F
SAINT CLOUD    MOSUNNY   86  73  65 SE14      29.88F HX  93
MINNEAPOLIS    MOSUNNY   88  73  61 SE15G22   29.90F HX  95
$$

  *****  WEATHER ACROSS SOUTH DAKOTA  *****

CITY           SKY/WX    TMP DP  RH WIND       PRES   REMARKS
SIOUX FALLS    PTSUNNY   78  70  76 SE12      29.86S
BROOKINGS      CLOUDY   N/A N/A N/A SE17G24   29.85F
WATERTOWN      PTSUNNY   82  67  60 S14G21    29.84R
HURON          SUNNY     86  70  58 SE17      29.75F HX  90
SISSETON         N/A     83  69  62 SE8       29.81F
ABERDEEN       SUNNY     87  69  54 S14       29.77F HX  91
MITCHELL       SUNNY     91  67  44 S15G28    29.77S HX  94
PIERRE         SUNNY     90  65  43 SE14      29.72F HX  92
MOBRIDGE       SUNNY     89  65  44 S7        29.74F HX  91
RAPID CITY     SUNNY     88  53  30 NE5       29.81F
$$

  *****  SOME WEATHER IN NEARBY STATES *****

CITY           SKY/WX    TMP DP  RH WIND       PRES   REMARKS
GLASGOW MT     SUNNY     75  47  36 NE15G22   29.88S
GREAT FALLS MT CLOUDY    51  49  92 E3        29.98F
CHEYENNE WY    MOSUNNY   84  35  17 VRB5      30.03F
SCOTTSBLUFF NE MOSUNNY   89  43  20 SE7       29.88F
OMAHA NE       PTSUNNY   88  71  57 SE18      29.88F HX  94
DES MOINES IA  PTSUNNY   89  69  51 S14       29.93F HX  93
DAVENPORT IA   MOSUNNY   90  71  53 W3        29.99S HX  96
CHICAGO IL     MOSUNNY   83  68  60 NE13      30.00S
EAU CLAIRE WI  MOSUNNY   85  71  63 SE10      29.97F HX  90
LA CROSSE WI   CLOUDY    88  72  58 E7        29.96F HX  94
$$

  *****  SOME NATIONAL WEATHER *****

CITY           SKY/WX    TMP DP  RH WIND       PRES   REMARKS
LA GUARDIA NY  MOSUNNY   83  64  52 NE14      30.10S
RALEIGH NC     TSTM      82  70  66 NE5       29.99S
ATLANTA GA     PTSUNNY   91  70  49 W7        30.00F HX  96
NEW ORLEANS LA PTSUNNY   81  72  74 W16       30.00R THUNDER
OKLAHOMA CITY  MOSUNNY   92  66  42 S13G24    29.95F HX  94
ALBUQUERQUE NM LGT RAIN  75  53  46 S15       30.14R
SALT LAKE CITY MOSUNNY   86  34  15 S29G38    29.79F
LOS ANGELES CA PTSUNNY   73  58  59 W14       29.88F
BOISE ID       MOSUNNY   69  42  37 NE3       29.78F
SEATTLE WA     PTSUNNY   57  47  69 N9        30.02S
$$

*** WEATHER ACROSS MANITOBA...SASKATCHEWAN AND ONTARIO ***
                ***ONTARIO***

CITY           SKY/WX    TMP DP  RH WIND       PRES   REMARKS
GERALDTON      MOSUNNY   82  59  44 S9        30.09F
THUNDER BAY    MOSUNNY   75  63  64 E13       30.06S
SIOUX LOOKOUT  PTSUNNY   82  61  47 S12G17    29.95F
TORONTO        MOSUNNY   81  52  36 E15G24    30.10S
BIG TROUT LK   MOSUNNY   70  64  83 W6        29.95R
PICKLE LAKE    PTSUNNY   81  61  50 S9G18     29.99F
DRYDEN         SUNNY     84  64  51 SE14G22   29.93F
KENORA         PTSUNNY   82  70  65 SE14      29.88S
$$
                *** MANITOBA***

CITY           SKY/WX    TMP DP  RH WIND       PRES   REMARKS
BRANDON        CLOUDY    66  61  82 E10G18    29.85R
DAUPHIN        CLOUDY    61  55  82 N12G17    29.93R
ISLAND LAKE    CLOUDY    63  61  94 N7        29.88F
PILOT MOUND      N/A     63  63 100 NE9         N/A
THE PAS        PTSUNNY   64  45  48 NW10      30.01F
THOMPSON       PTSUNNY   68  45  42 W9        29.97R
WINNIPEG       TSTM      68  66  94 SE9       29.82F
LYNN LAKE      SUNNY     59  45  58 NW12G17   30.02S
CHURCHILL      PTSUNNY   52  48  87 N13       29.95R
GILLAM         PTSUNNY   66  50  55 W10       29.92F
$$
                ***SASKATCHEWAN***

CITY           SKY/WX    TMP DP  RH WIND       PRES   REMARKS
ESTEVAN        CLOUDY    66  52  59 NE15      29.89S
KINDERSLEY     LGT RAIN  54  43  66 E12       30.10R
LLOYDMINSTER   PTSUNNY   54  43  66 N9        30.14S
PRINCE ALBERT  CLOUDY    57  45  62 N9        30.09F
REGINA         PTSUNNY   64  45  48 N15G24    29.98R
YORKTON        CLOUDY    63  48  59 N18       29.98F
N. BATTLEFORD  MOSUNNY   57  39  51 N5        30.13S
LA RONGE       CLOUDY    55  45  67 W7        30.11S
SASKATOON      PTSUNNY   57  41  54 NE10      30.10F
SWIFT CURRENT  LGT RAIN  52  48  87 NE14      30.04S
$$
NOTE: THESE ARE AUTOMATED STATIONS WITH LIMITED QUALITY CONTROL
      "FAIR" INDICATES FEW OR NO CLOUDS BELOW 12,000 FEET WITH NO
      SIGNIFICANT WEATHER AND/OR OBSTRUCTIONS TO VISIBILITY.
      SKY/WX - SKY CONDITION AND SIGNIFICANT WEATHER.
      TMP - AIR TEMPERATURE.    DP   - DEWPOINT TEMPERATURE.
      RH  - RELATIVE HUMIDITY.  PRES - PRESSURE.
      HX  - HEAT INDEX.         WCI  - WIND CHILL INDEX.
$


USA.gov is the U.S. government's official web portal to all federal, state and local government web resources and services.